When you browse on this site, cookies collect data to enhance your experience and personalize the content and advertising you see.
Visit our Privacy Policy to learn more. By continuing to use the site, you agree to this use of cookies and data.
  • In Austria
  • List of Countries
  • For 7 days
  • Water Temperature
  • Weather Map
  • News
  • Weather Widgets
  • user-avatar
    Login

    Hourly Weather La Vega

    Today, 23 September, Monday

    Time Temperature Precipitation Wind Pressure Humidity
    00:00 +20°C° 0.4 mm 1 mps 661 mmHg 89%
    01:00 +20°C° 0 mm 1 mps 661 mmHg 89%
    02:00 +20°C° 0.7 mm 1 mps 661 mmHg 89%
    03:00 +19°C° 0.7 mm 1 mps 661 mmHg 89%
    04:00 +19°C° 0.7 mm 1 mps 661 mmHg 89%
    05:00 +20°C° 0.2 mm 1 mps 661 mmHg 88%
    06:00 +21°C° 0.2 mm 1 mps 662 mmHg 86%
    07:00 +22°C° 0 mm 1 mps 663 mmHg 83%
    08:00 +23°C° 0.2 mm 1 mps 663 mmHg 78%
    09:00 +25°C° 0.2 mm 1 mps 663 mmHg 73%
    10:00 +27°C° 0.2 mm 1 mps 664 mmHg 68%
    11:00 +27°C° 0.5 mm 1 mps 663 mmHg 68%
    12:00 +27°C° 0.5 mm 2 mps 662 mmHg 68%
    13:00 +28°C° 0.5 mm 2 mps 661 mmHg 68%
    14:00 +28°C° 0.7 mm 2 mps 660 mmHg 69%
    15:00 +27°C° 0.7 mm 1 mps 660 mmHg 69%
    16:00 +27°C° 0.7 mm 1 mps 660 mmHg 69%
    17:00 +26°C° 0.8 mm 1 mps 660 mmHg 74%
    18:00 +24°C° 0.8 mm 1 mps 660 mmHg 78%
    19:00 +23°C° 0.8 mm 1 mps 660 mmHg 83%
    20:00 +23°C° 0.5 mm 1 mps 660 mmHg 83%
    21:00 +22°C° 0.5 mm 1 mps 661 mmHg 84%
    22:00 +22°C° 0.5 mm 1 mps 662 mmHg 84%
    23:00 +22°C° 0.1 mm 1 mps 661 mmHg 84%

    Tomorrow, 24 September, Tuesday

    Time Temperature Precipitation Wind Pressure Humidity
    00:00 +22°C° 0.1 mm 1 mps 661 mmHg 84%
    01:00 +22°C° 0.1 mm 1 mps 661 mmHg 84%
    02:00 +21°C° 0.1 mm 1 mps 661 mmHg 85%
    03:00 +21°C° 0.1 mm 1 mps 661 mmHg 85%
    04:00 +20°C° 0.1 mm 1 mps 660 mmHg 86%
    05:00 +21°C° 0.1 mm 1 mps 661 mmHg 85%
    06:00 +21°C° 0.1 mm 1 mps 661 mmHg 83%
    07:00 +22°C° 0.1 mm 1 mps 662 mmHg 82%
    08:00 +23°C° 0.1 mm 1 mps 663 mmHg 77%
    09:00 +25°C° 0.1 mm 1 mps 663 mmHg 72%
    10:00 +27°C° 0.1 mm 1 mps 664 mmHg 67%
    11:00 +27°C° 0.6 mm 1 mps 663 mmHg 70%
    12:00 +27°C° 0.6 mm 1 mps 662 mmHg 72%
    13:00 +26°C° 0.6 mm 1 mps 661 mmHg 74%
    14:00 +26°C° 0.7 mm 1 mps 661 mmHg 76%
    15:00 +26°C° 0.7 mm 1 mps 660 mmHg 78%
    16:00 +25°C° 0.7 mm 1 mps 660 mmHg 79%
    17:00 +24°C° 0.5 mm 1 mps 660 mmHg 82%
    18:00 +23°C° 0.5 mm 1 mps 660 mmHg 86%
    19:00 +22°C° 0.5 mm 1 mps 661 mmHg 89%
    20:00 +22°C° 0.3 mm 1 mps 661 mmHg 87%
    21:00 +22°C° 0.3 mm 1 mps 661 mmHg 86%
    22:00 +22°C° 0.3 mm 1 mps 662 mmHg 84%
    23:00 +22°C° 0.2 mm 1 mps 662 mmHg 85%

    Day after tomorrow, 25 September, Wednesday

    Time Temperature Precipitation Wind Pressure Humidity
    00:00 +22°C° 0.2 mm 1 mps 661 mmHg 85%
    01:00 +21°C° 0.2 mm 1 mps 661 mmHg 85%
    02:00 +21°C° 0.2 mm 1 mps 661 mmHg 85%
    03:00 +19°C° 0.2 mm 0 mps 661 mmHg 85%
    04:00 +19°C° 0.2 mm 0 mps 661 mmHg 85%
    05:00 +20°C° 0.3 mm 0 mps 661 mmHg 85%
    06:00 +20°C° 0.3 mm 0 mps 662 mmHg 85%
    07:00 +20°C° 0.3 mm 0 mps 663 mmHg 85%
    08:00 +21°C° 0.4 mm 0 mps 663 mmHg 84%
    09:00 +21°C° 0.4 mm 0 mps 663 mmHg 82%
    10:00 +22°C° 0.4 mm 0 mps 663 mmHg 81%
    11:00 +23°C° 0.6 mm 0 mps 663 mmHg 76%
    12:00 +27°C° 0.6 mm 1 mps 662 mmHg 72%
    13:00 +28°C° 0.6 mm 1 mps 661 mmHg 67%
    14:00 +28°C° 0.5 mm 1 mps 661 mmHg 67%
    15:00 +28°C° 0.5 mm 1 mps 660 mmHg 68%
    16:00 +27°C° 0.5 mm 1 mps 660 mmHg 68%
    17:00 +26°C° 1.3 mm 1 mps 660 mmHg 75%
    18:00 +24°C° 1.3 mm 1 mps 660 mmHg 82%
    19:00 +23°C° 1.3 mm 1 mps 660 mmHg 89%
    20:00 +22°C° 1 mm 1 mps 661 mmHg 90%
    21:00 +22°C° 1 mm 1 mps 661 mmHg 91%
    22:00 +21°C° 1 mm 1 mps 662 mmHg 92%
    23:00 +21°C° 0.3 mm 1 mps 661 mmHg 92%

    26 September, Thursday

    Time Temperature Precipitation Wind Pressure Humidity
    00:00 +21°C° 0.3 mm 1 mps 661 mmHg 92%
    01:00 +20°C° 0.3 mm 1 mps 661 mmHg 91%
    02:00 +20°C° 0 mm 1 mps 661 mmHg 91%
    03:00 +20°C° 0 mm 1 mps 660 mmHg 91%
    04:00 +20°C° 0 mm 1 mps 660 mmHg 90%
    05:00 +20°C° 0.1 mm 1 mps 661 mmHg 89%
    06:00 +21°C° 0.1 mm 1 mps 661 mmHg 88%
    07:00 +21°C° 0.1 mm 1 mps 662 mmHg 86%
    08:00 +23°C° 0.2 mm 1 mps 662 mmHg 82%
    09:00 +24°C° 0.2 mm 1 mps 662 mmHg 77%
    10:00 +25°C° 0.2 mm 1 mps 663 mmHg 72%
    11:00 +26°C° 0.7 mm 1 mps 662 mmHg 73%
    12:00 +26°C° 0.7 mm 1 mps 661 mmHg 73%
    13:00 +27°C° 0.7 mm 2 mps 661 mmHg 73%
    14:00 +27°C° 0.9 mm 1 mps 660 mmHg 73%
    15:00 +26°C° 0.9 mm 1 mps 660 mmHg 74%
    16:00 +26°C° 0.9 mm 1 mps 660 mmHg 75%
    17:00 +25°C° 0.5 mm 1 mps 660 mmHg 79%
    18:00 +23°C° 0.5 mm 1 mps 660 mmHg 82%
    19:00 +22°C° 0.5 mm 1 mps 660 mmHg 86%
    20:00 +22°C° 0.2 mm 1 mps 660 mmHg 85%
    21:00 +22°C° 0.2 mm 1 mps 661 mmHg 85%
    22:00 +22°C° 0.2 mm 1 mps 661 mmHg 84%
    23:00 +21°C° 0.2 mm 1 mps 661 mmHg 85%

    27 September, Friday

    Time Temperature Precipitation Wind Pressure Humidity
    00:00 +21°C° 0.2 mm 1 mps 661 mmHg 87%
    01:00 +20°C° 0.2 mm 1 mps 660 mmHg 88%
    02:00 +20°C° 0.1 mm 1 mps 660 mmHg 87%
    03:00 +20°C° 0.1 mm 1 mps 660 mmHg 87%
    04:00 +20°C° 0.1 mm 1 mps 660 mmHg 87%
    05:00 +20°C° 0 mm 1 mps 661 mmHg 85%
    06:00 +21°C° 0 mm 1 mps 661 mmHg 84%
    07:00 +20°C° 0 mm 0 mps 662 mmHg 82%
    08:00 +23°C° 0.2 mm 1 mps 662 mmHg 78%
    09:00 +25°C° 0.2 mm 1 mps 663 mmHg 74%
    10:00 +27°C° 0.2 mm 1 mps 663 mmHg 70%
    11:00 +27°C° 1.4 mm 1 mps 662 mmHg 73%
    12:00 +26°C° 1.4 mm 1 mps 661 mmHg 77%
    13:00 +26°C° 1.4 mm 1 mps 660 mmHg 81%
    14:00 +26°C° 1.4 mm 1 mps 660 mmHg 82%
    15:00 +26°C° 1.4 mm 1 mps 660 mmHg 84%
    16:00 +25°C° 1.4 mm 1 mps 659 mmHg 85%
    17:00 +24°C° 0.9 mm 1 mps 659 mmHg 87%
    18:00 +23°C° 0.9 mm 1 mps 660 mmHg 90%
    19:00 +22°C° 0.9 mm 1 mps 660 mmHg 92%
    20:00 +21°C° 0.7 mm 1 mps 660 mmHg 92%
    21:00 +21°C° 0.7 mm 1 mps 660 mmHg 91%
    22:00 +20°C° 0.7 mm 1 mps 661 mmHg 91%
    23:00 +20°C° 0.3 mm 1 mps 660 mmHg 91%

    28 September, Saturday

    Time Temperature Precipitation Wind Pressure Humidity
    00:00 +20°C° 0.3 mm 1 mps 660 mmHg 91%
    01:00 +20°C° 0.3 mm 1 mps 660 mmHg 91%
    02:00 +20°C° 0 mm 1 mps 660 mmHg 90%
    03:00 +19°C° 0 mm 1 mps 660 mmHg 90%
    04:00 +19°C° 0 mm 1 mps 659 mmHg 89%
    05:00 +20°C° 0 mm 1 mps 660 mmHg 87%
    06:00 +21°C° 0 mm 1 mps 661 mmHg 85%
    07:00 +22°C° 0 mm 1 mps 661 mmHg 82%
    08:00 +24°C° 0.1 mm 1 mps 662 mmHg 77%
    09:00 +26°C° 0.1 mm 1 mps 662 mmHg 71%
    10:00 +27°C° 0.1 mm 1 mps 663 mmHg 66%
    11:00 +28°C° 0.6 mm 1 mps 662 mmHg 68%
    12:00 +28°C° 0.6 mm 1 mps 661 mmHg 71%
    13:00 +28°C° 0.6 mm 1 mps 660 mmHg 73%
    14:00 +27°C° 1.1 mm 1 mps 659 mmHg 77%
    15:00 +26°C° 1.1 mm 1 mps 659 mmHg 81%
    16:00 +24°C° 1.1 mm 0 mps 658 mmHg 85%
    17:00 +23°C° 2.1 mm 0 mps 659 mmHg 87%
    18:00 +21°C° 2.1 mm 0 mps 659 mmHg 89%
    19:00 +20°C° 2.1 mm 0 mps 659 mmHg 92%
    20:00 +20°C° 0.9 mm 0 mps 659 mmHg 92%
    21:00 +22°C° 0.9 mm 1 mps 660 mmHg 92%
    22:00 +21°C° 0.9 mm 1 mps 660 mmHg 92%
    23:00 +21°C° 0.7 mm 1 mps 660 mmHg 92%
    Show more